SCP
0 0 0 0 0 0 0 0 0 0 0 0 0 0 0 0 0 0 0 0 0 0 0 0 0 0 0 0 0 0 0 0 0 0 0 0 0 0 0 0 0 0 0 0 0 0 0 0 0 0 0 0 0 0
0 0 0 0 0 0 0 0 0 0 0 0 0 0 0 0 0 0 0 0 0 0 -0 0 0 0 0 0 0 0 0 0 0 0 0 0 0 0 0 0 0 0 0 0 0 0 0 0 0 0 0 0 0 0
0 0 0 0 0 0 0 0 0 0 0 0 0 0 0 0 0 0 0 0 0 0 -0 -0 0 0 0 0 0 0 0 0 0 0 0 0 0 0 0 0 0 0 0 0 0 0 0 0 0 0 0 0 0 0
0 0 0 0 0 0 0 0 0 0 0 0 0 0 0 0 0 0 0 0 0 0 -0 -0 0 0 0 0 0 0 0 0 0 0 0 0 0 0 0 0 0 0 0 0 0 0 0 0 0 0 0 0 0 0
0 0 0 0 0 0 0 0 0 0 0 0 0 0 0 0 0 0 0 0 0 0 0 0 0 0 0 0 0 0 0 0 0 0 0 0 0 0 0 0 0 0 0 0 0 0 0 0 0 0 0 0 0 0
0 0 0 0 0 0 0 0 0 0 0 0 0 0 0 0 0 0 0 0 0 0 0 0 -0 -0 -0 0 0 0 0 0 0 0 0 0 0 0 0 0 0 0 0 0 0 0 0 0 0 0 0 0 0 0
0 0 0 0 0 0 0 0 0 0 0 0 0 0 0 0 0 0 0 0 0 0 0 0 -0 0 0 0 0 0 0 0 0 0 0 0 0 0 0 0 0 0 0 0 0 0 0 0 0 0 0 0 0 0
0 0 0 0 0 0 0 0 0 0 0 0 0 0 0 0 0 0 -0 0 0 0 0 0 0 0 0 0 0 0 0 0 0 0 0 0 0 0 0 0 0 0 0 0 0 0 0 0 0 0 0 0 0 0
0 0 0 0 0 0 0 0 0 0 0 0 0 0 0 0 0 0 0 0 0 0 0 0 0 0 0 0 0 0 0 0 0 0 0 0 0 0 0 0 0 0 0 0 0 0 0 0 0 0 0 0 0 0
0 0 0 0 0 -0 0 0 0 0 0 0 0 0 0 0 0 0 0 0 0 0 0 0 0 0 0 0 0 0 0 0 0 0 0 0 0 0 0 0 0 0 0 0 0 0 0 0 0 0 0 0 0 0
0 0 0 0 0 0 -0 0 0 0 0 0 0 0 -0 0 0 0 0 0 0 0 0 0 0 0 0 0 0 0 0 0 0 0 0 0 0 0 0 0 0 0 0 0 0 0 0 0 0 0 0 0 0 0
0 0 0 0 -0 -0 -0 0 0 0 0 -0 0 -0 -0 -0 0 0 0 0 0 0 0 0 0 0 0 0 0 0 0 0 0 0 0 0 0 0 0 0 0 0 0 0 0 0 0 0 0 0 0 0 0 0
0 0 0 0 0 -0 0 0 0 0 0 0 -0 -0 -0 0 0 0 0 0 0 0 0 0 0 0 0 0 0 0 0 0 0 0 0 0 0 0 0 0 0 0 0 0 0 0 0 0 0 0 0 0 0 0
0 0 0 0 0 0 -0 -0 0 0 -0 -0 0 0 0 0 -0 0 0 0 -0 0 0 0 0 0 0 0 0 0 0 0 0 0 0 0 0 0 0 0 0 0 0 0 0 0 0 0 0 0 0 0 0 0
-0 -0 -0 -0 -0 -0 0 0 -0 -0 -0 -0 0 -0 0 0 -0 0 -0 0 0 0 0 0 0 0 0 0 0 0 0 0 0 0 0 0 0 0 0 0 0 0 0 0 0 0 0 0 0 0 0 0 0 0
-0 -0 0 -0 0 0 -0 -0 0 0 -0 -0 0 0 -0 0 -0 -0 0 0 0 0 0 0 0 0 0 0 0 0 0 0 0 0 0 0 0 0 0 0 0 0 0 0 0 0 0 0 0 0 0 0 0 0
0 0 -0 -0 0 -0 -0 0 0 0 -0 -0 0 0 0 0 0 0 0 0 0 0 0 0 0 0 0 0 0 0 0 0 0 0 0 0 0 0 0 0 0 0 0 0 0 0 0 0 0 0 0 0 0 0
0 0 -0 -0 0 0 0 0 0 0 0 0 0 0 -0 0 0 0 -0 -0 0 0 0 0 0 0 0 0 0 0 0 0 0 0 0 0 0 0 0 0 0 0 0 0 0 0 0 0 0 0 0 0 0 0
0 -0 -0 0 0 0 0 0 0 0 0 0 0 0 -0 -0 0 0 -0 0 0 0 0 -0 -0 -0 0 0 0 0 0 0 0 0 0 0 0 0 0 0 0 0 0 0 0 0 0 0 0 0 0 0 0 0
-0 0 0 0 0 0 0 0 0 0 0 0 0 -0 0 0 0 0 -0 0 -0 0 0 -0 -0 -0 -0 -0 0 0 0 0 0 0 0 0 0 0 0 0 0 0 0 0 0 0 0 0 0 0 0 0 0 0
0 0 0 0 0 0 0 0 0 0 0 -0 -0 0 -0 -0 -0 -0 0 0 0 0 0 0 -0 -0 0 0 0 0 0 0 0 0 0 0 0 0 0 0 0 0 0 0 0 0 0 0 0 0 0 0 0 0
0 0 0 0 0 0 0 0 0 0 0 0 0 -0 -0 -0 -0 -0 0 0 0 0 0 0 0 0 0 0 0 0 0 0 0 0 -0 -0 0 0 0 0 0 0 0 -0 0 0 0 0 0 0 0 0 0 0
0 -0 0 0 0 0 0 0 0 0 0 -0 0 -0 0 0 0 0 0 0 0 0 0 0 0 0 0 0 0 0 0 0 0 -0 -0 0 -0 0 0 0 -0 -0 -0 -0 0 0 0 0 0 0 -0 -0 -0 -0
0 0 0 0 0 0 0 0 0 -0 0 0 0 0 0 0 0 0 0 0 0 0 -0 0 0 0 0 0 0 0 0 0 0 0 0 0 0 0 0 -0 0 -0 -0 -0 0 0 0 0 -0 -0 -0 -0 0 0
0 0 0 0 0 0 0 0 0 0 0 0 0 -0 -0 -0 0 0 0 0 0 0 0 0 0 0 0 0 0 0 0 0 0 0 0 0 0 0 -0 -0 -0 0 0 -0 0 -0 0 0 0 0 0 0 0 0
0 0 0 0 0 0 0 0 0 0 0 0 0 0 0 0 0 0 0 0 0 0 0 0 0 0 0 0 0 0 0 0 0 0 0 0 0 -0 -0 -0 0 0 0 0 0 0 0 0 0 0 0 0 0 0
0 0 0 0 0 0 0 0 0 0 0 0 0 0 0 0 0 0 0 0 0 0 0 0 0 0 0 0 0 0 0 -0 0 0 0 0 -0 -0 0 0 0 0 0 0 0 -0 -0 0 0 0 0 0 0 0
0 0 0 0 0 0 0 0 0 0 0 0 0 0 0 0 0 0 0 0 0 0 0 0 0 0 0 0 0 0 0 0 0 0 0 0 -0 0 0 0 0 0 0 0 0 0 0 0 0 0 0 0 0 0
0 0 0 0 0 0 0 0 0 0 0 -0 -0 0 0 0 0 0 0 0 0 0 0 0 0 -0 -0 -0 -0 0 0 0 0 -0 -0 0 0 0 0 0 0 0 0 0 0 0 0 0 0 0 0 0 -0 -0
0 0 0 0 -0 0 0 0 0 -0 0 0 -0 -0 -0 0 0 0 0 0 0 0 0 0 -0 -0 -0 -0 -0 0 0 0 0 0 0 0 0 0 0 0 0 0 0 0 0 0 0 0 0 0 -0 -0 -0 -0
-0 0 -0 0 0 0 0 0 0 0 0 -0 -0 -0 -0 0 0 -0 -0 -0 0 0 0 0 0 0 0 0 -0 0 0 0 0 0 0 0 0 0 0 0 0 0 0 0 0 0 0 0 0 0 -0 -0 -0 -0
0 0 0 0 0 0 0 0 0 0 0 0 -0 -0 -0 0 -0 -0 -0 -0 -0 -0 0 0 0 0 0 0 0 0 0 0 0 0 0 0 0 0 0 0 0 0 0 0 0 0 0 0 0 -0 -0 -0 -0 -0
0 0 0 0 0 0 0 0 0 0 0 0 0 0 0 0 0 0 0 -0 -0 0 0 0 0 0 0 -0 -0 -0 0 0 0 0 0 0 0 0 0 0 0 0 0 0 0 0 0 0 0 0 0 0 -0 -0
Wind_Speed_500mb
67 68 67 66 64 62 58 56 55 55 52 52 49 47 51 42 37 35 47 40 43 20 34 45 51 29 15 13 9 15 6 3 6 6 7 7 6 9 3 7 11 14 14 9 6 8 17 21 11 10 8 8 11 17
70 71 70 67 64 63 62 59 57 54 53 51 48 47 44 42 38 34 48 40 43 59 31 39 48 65 37 25 14 17 15 10 12 5 3 5 3 4 7 6 2 6 13 10 17 13 11 35 22 19 22 24 17 19
76 77 73 70 67 65 63 61 58 56 55 52 50 47 44 40 39 37 44 36 38 41 47 56 62 69 69 71 54 22 25 28 15 14 12 5 5 7 8 11 6 9 12 7 2 6 12 29 31 32 23 22 18 18
84 82 74 70 69 67 64 61 57 54 52 51 49 46 44 39 36 36 40 36 39 23 11 29 32 36 40 54 59 57 45 22 31 34 11 6 5 16 6 6 8 12 13 9 11 15 25 39 35 22 16 15 18 18
90 81 75 72 71 69 65 61 56 53 51 49 46 44 43 40 35 39 47 47 49 49 7 12 11 36 36 38 39 44 46 41 30 14 5 6 7 6 5 3 10 19 14 11 12 19 12 14 8 8 16 13 13 18
82 78 76 76 73 69 64 60 56 53 48 45 45 48 46 40 31 37 19 29 52 67 21 5 21 27 27 30 41 38 44 51 34 18 9 11 12 13 6 7 13 48 47 49 14 16 23 13 10 8 7 6 10 16
93 90 84 81 77 70 62 57 54 51 46 44 46 43 40 36 35 39 18 15 27 57 21 6 8 14 34 37 37 29 32 27 26 14 11 15 12 18 5 11 10 38 43 47 39 33 19 20 6 8 5 6 10 18
98 95 91 85 78 73 66 57 50 47 45 45 38 40 42 42 48 57 60 58 34 53 23 5 6 6 27 15 9 27 21 27 24 13 11 10 13 12 11 21 41 35 20 29 28 39 24 9 18 10 7 8 12 19
92 87 82 77 74 69 64 57 45 43 39 33 34 38 44 47 38 47 39 46 49 31 7 7 6 7 30 13 13 14 14 5 8 6 8 18 8 15 26 23 38 46 32 28 31 33 31 17 12 13 14 12 13 17
82 78 71 56 60 55 49 45 38 28 28 28 31 22 13 17 32 22 24 18 18 25 15 6 10 4 24 12 9 13 12 6 7 10 18 8 15 52 65 69 57 39 28 38 28 33 38 37 27 18 16 11 10 10
62 55 43 37 31 32 33 44 24 19 23 21 12 16 22 21 17 16 9 12 10 5 13 13 29 6 16 5 5 17 6 9 6 8 11 6 7 21 67 82 87 79 58 32 35 34 35 33 21 25 16 8 5 9
48 39 27 17 14 27 27 21 17 21 15 10 22 27 12 9 9 8 7 6 9 11 12 9 14 14 7 10 5 12 8 11 9 20 8 6 10 50 33 21 24 47 60 58 45 30 24 27 24 19 13 5 3 6
43 34 21 11 14 18 14 12 16 14 16 19 8 8 9 12 8 8 12 7 7 8 19 15 7 15 6 7 5 4 8 6 22 9 7 10 15 12 10 15 13 23 35 42 41 35 27 25 23 17 11 6 3 6
36 30 24 17 11 7 7 8 9 12 11 9 8 8 7 6 8 9 7 7 16 12 33 28 9 7 6 4 3 3 6 6 8 8 9 7 30 21 15 11 11 24 31 38 41 32 32 33 29 21 14 10 9 11
27 25 23 17 11 9 7 7 11 17 10 8 9 8 12 11 10 10 18 5 4 28 42 14 9 8 3 3 6 5 6 8 10 9 8 15 28 24 26 23 22 36 41 44 46 47 40 31 24 21 17 11 11 14
22 17 30 25 19 12 12 14 23 12 14 10 11 7 9 1 3 10 10 9 13 37 24 5 6 4 7 6 10 11 5 10 8 7 8 11 24 36 32 31 33 38 44 50 49 36 22 16 23 17 16 10 6 11
23 24 28 23 23 25 20 18 11 10 10 8 8 15 8 2 2 2 5 7 26 31 3 3 7 11 5 7 7 8 8 5 5 6 8 25 38 37 35 35 38 45 49 47 38 35 33 27 24 21 19 12 4 7
30 31 32 23 23 24 15 6 6 6 7 10 6 5 1 9 3 2 9 17 25 15 12 5 7 7 5 7 6 5 3 4 12 19 30 31 30 28 29 36 46 47 42 42 43 37 35 23 20 19 16 11 5 3
33 33 23 14 14 16 8 6 4 7 8 9 9 6 5 7 12 2 7 10 20 7 11 4 7 6 5 6 4 7 15 26 28 33 36 30 26 25 30 36 40 39 41 43 39 34 27 16 9 12 11 11 8 3
19 19 17 8 12 7 7 7 6 8 8 10 12 7 6 4 11 15 5 3 7 5 5 5 6 8 9 16 17 24 29 32 31 27 22 15 16 23 30 41 41 42 43 38 34 36 25 17 16 10 11 12 10 4
7 10 12 10 10 5 7 7 7 8 13 10 13 12 6 3 5 10 12 13 3 4 5 9 15 17 32 11 22 36 26 23 25 20 17 18 17 14 24 29 35 43 41 42 47 24 16 18 15 15 14 13 10 7
10 9 11 11 5 6 7 6 11 17 8 12 14 9 6 4 4 3 7 7 4 8 14 21 33 32 11 18 27 25 22 23 24 25 20 18 18 18 22 25 32 39 40 51 28 30 22 17 17 16 10 11 14 8
18 13 9 3 5 5 9 9 7 6 4 7 10 7 4 5 6 5 2 3 3 12 30 35 35 20 4 6 11 13 11 10 13 17 16 18 19 19 25 26 30 54 49 37 25 20 20 18 14 14 16 16 14 8
12 5 5 5 5 7 7 6 7 7 6 5 2 5 6 6 8 2 3 7 19 26 32 25 17 13 7 2 4 3 4 5 3 6 11 20 30 32 24 30 33 27 18 14 17 15 14 13 16 18 19 15 10 13
6 4 3 7 5 5 6 9 5 0 4 3 4 4 4 6 3 4 4 12 32 39 36 29 12 2 4 7 6 6 5 8 13 8 12 19 28 28 29 24 16 13 13 13 15 16 18 20 20 20 15 11 17 22
4 3 3 3 4 1 5 5 5 4 5 5 2 6 7 3 7 7 6 26 39 41 38 35 29 17 1 6 9 10 10 7 9 11 11 17 25 30 30 24 20 15 8 11 7 7 13 23 23 17 16 19 21 21
5 5 5 9 10 10 5 8 7 4 5 8 4 6 7 7 8 6 22 29 40 31 23 23 21 17 14 7 4 11 7 5 8 6 13 17 29 29 21 14 7 5 4 4 1 2 13 27 23 21 24 24 22 21
7 6 5 20 7 8 3 2 7 10 7 12 6 9 5 8 5 14 22 32 26 20 14 15 15 16 21 20 17 12 18 18 9 4 29 36 31 22 17 11 6 6 6 7 5 10 15 20 25 28 28 28 29 28
7 8 7 6 8 10 12 10 7 9 14 8 5 5 6 9 25 22 26 22 21 18 17 15 15 16 17 17 17 16 22 20 11 26 35 34 30 22 18 11 4 10 13 13 14 11 14 21 26 30 32 32 31 29
4 7 4 7 5 7 8 8 10 18 30 30 17 12 12 27 37 24 21 20 21 24 26 27 27 30 32 28 23 18 10 13 12 17 25 26 27 19 14 13 7 1 9 12 15 25 28 29 34 35 36 34 31 27
3 7 7 8 5 11 31 33 35 31 30 35 31 24 12 7 35 48 39 33 30 33 38 37 36 32 25 25 22 15 22 18 13 15 23 21 23 20 15 12 10 9 8 14 14 23 33 37 38 39 37 34 30 26
7 6 3 3 5 20 12 5 5 6 4 3 6 4 9 10 11 19 45 44 45 49 45 40 39 38 32 33 30 38 41 26 15 6 8 20 26 21 18 13 11 4 18 22 17 21 27 31 33 34 34 33 29 26
11 7 8 8 7 5 6 7 2 3 5 3 5 9 10 8 9 17 19 24 38 43 42 41 39 37 32 26 25 26 26 26 28 29 21 2 19 22 21 20 26 20 21 26 20 20 24 26 27 26 28 28 26 24
Wind_Direction_500mb
314 310 307 305 303 305 303 303 298 298 294 295 296 290 296 296 294 286 287 271 274 252 258 252 260 256 204 199 169 172 94 238 75 164 158 208 180 219 149 221 179 174 171 198 172 216 257 162 128 165 215 265 279 297
313 309 305 300 298 297 297 297 294 292 295 294 296 294 295 295 292 287 281 289 265 254 250 278 274 252 246 219 209 188 183 148 199 97 220 109 180 163 168 244 175 228 192 179 180 215 221 191 220 238 275 277 281 288
309 308 304 299 295 291 291 291 290 288 289 289 291 292 289 292 286 282 279 274 269 263 267 268 265 266 251 245 237 246 253 219 210 236 175 173 190 129 178 234 212 246 180 205 116 230 216 241 253 270 253 267 276 289
306 305 302 299 297 293 290 288 288 286 287 284 286 287 288 288 283 281 270 265 253 262 255 259 267 250 254 243 241 221 234 229 217 204 188 145 168 188 225 241 205 210 148 196 260 281 278 269 265 263 249 260 278 290
303 300 298 294 295 294 288 284 284 283 282 282 283 284 287 283 281 281 269 257 241 229 270 283 243 259 260 246 232 220 213 212 199 171 144 195 169 152 237 278 234 185 195 181 227 231 223 270 283 231 232 260 271 275
308 303 297 290 287 288 287 281 279 280 279 278 279 281 280 281 278 285 283 255 236 223 255 251 252 228 215 221 214 215 202 203 209 176 177 195 170 174 223 246 237 217 221 226 210 230 235 271 267 241 242 248 269 282
302 298 292 288 283 281 280 278 273 275 276 272 278 280 279 278 264 259 238 258 312 214 226 262 249 227 221 209 203 196 209 201 206 204 200 160 184 189 242 246 229 228 231 228 230 244 256 250 221 203 206 237 277 291
301 296 290 284 277 275 275 272 268 267 272 274 277 275 279 275 270 259 251 247 268 197 205 240 252 221 187 169 149 174 172 191 194 189 166 169 158 201 252 242 240 231 229 229 233 226 237 246 202 203 217 251 281 289
309 300 294 283 275 270 268 263 257 260 274 273 277 281 282 271 257 257 251 239 231 213 221 201 209 203 178 145 139 146 144 151 200 192 207 166 181 219 236 249 245 244 229 227 232 221 221 224 211 221 243 265 285 285
315 308 301 284 274 268 267 253 244 251 263 274 275 281 258 227 237 207 186 188 191 204 233 226 213 228 179 152 135 143 157 184 189 205 166 223 242 245 248 255 259 255 238 225 212 212 220 231 224 228 251 264 285 277
327 325 317 298 275 258 265 241 210 233 261 272 239 221 257 281 171 189 182 184 173 216 218 221 199 192 184 154 118 168 171 165 210 180 193 231 256 241 244 241 242 242 243 236 222 230 238 236 229 226 224 243 274 300
342 343 339 327 292 273 236 181 188 226 238 264 300 296 267 240 209 183 194 182 195 217 191 195 198 196 162 143 153 170 196 180 222 142 196 241 245 250 252 261 236 223 224 225 224 238 240 224 222 209 197 211 285 319
356 355 5 25 83 114 144 160 210 249 259 287 255 244 203 209 203 203 189 191 215 205 177 167 146 160 154 142 130 177 217 207 136 182 215 231 266 267 225 201 186 193 203 210 211 221 222 201 174 176 167 145 49 8
20 33 46 57 79 125 194 231 235 225 254 233 222 254 241 201 221 208 193 185 213 181 155 147 125 124 162 136 124 236 225 143 205 219 225 223 238 244 196 178 195 180 179 186 194 188 174 163 153 147 135 108 65 39
4 19 15 1 335 316 287 258 242 251 245 244 229 236 224 241 248 267 237 281 138 160 147 124 99 134 118 154 198 234 232 215 211 217 228 217 214 195 171 158 156 161 166 166 157 149 145 140 139 140 133 104 65 35
359 16 16 10 354 331 307 278 285 212 185 236 248 270 252 228 282 181 193 133 126 151 148 140 145 168 181 203 195 214 236 219 240 213 229 228 179 167 162 164 170 169 166 151 145 142 155 178 169 156 163 143 90 35
351 4 357 349 341 340 314 298 199 214 221 239 257 255 259 252 273 136 104 145 169 161 177 144 206 212 169 204 207 207 221 254 307 250 206 167 153 159 163 169 171 168 163 163 156 153 146 136 154 172 176 168 136 31
336 337 335 329 324 331 323 315 299 272 252 266 289 30 248 148 32 196 204 204 179 188 152 224 291 239 199 203 219 231 233 46 106 133 133 134 143 156 168 173 176 173 169 167 167 157 151 145 161 171 180 189 207 358
320 327 337 325 330 323 325 308 291 284 271 305 335 331 213 264 215 201 33 277 207 177 179 222 243 245 215 244 302 310 205 145 140 121 117 127 140 156 171 179 183 185 184 182 176 167 151 134 156 178 192 212 225 281
313 323 340 298 297 312 292 284 293 295 289 317 308 310 260 234 201 214 198 86 157 228 224 228 238 220 267 259 228 209 170 151 137 120 112 138 168 183 184 189 192 190 188 186 177 160 154 180 195 216 226 227 231 312
330 325 332 319 310 292 271 309 294 269 305 296 319 318 303 280 238 216 224 202 144 318 283 281 277 274 279 279 101 110 102 92 83 90 116 117 114 127 170 184 189 186 193 185 163 157 209 208 232 234 235 222 221 272
34 4 326 347 327 302 280 272 265 290 272 290 318 326 318 317 276 242 163 189 194 280 289 293 315 341 53 121 155 150 116 101 87 79 95 112 120 127 146 162 172 169 168 155 166 178 195 220 238 227 233 226 227 243
345 345 325 310 285 268 284 292 285 290 306 301 334 333 335 323 329 129 40 68 75 339 315 314 316 335 16 106 123 138 133 98 87 70 79 116 125 126 134 146 161 155 160 171 182 201 228 246 234 227 219 213 215 229
340 296 282 285 262 269 269 252 249 278 288 306 313 324 312 315 332 31 60 56 358 5 9 352 309 310 335 249 264 296 272 207 141 118 127 144 141 143 131 136 140 144 144 177 202 217 235 244 233 204 197 202 204 169
300 239 249 289 255 289 325 325 270 272 307 13 323 296 317 342 4 30 46 6 360 4 15 18 30 168 265 252 280 306 348 217 218 201 164 160 162 165 164 157 163 182 190 199 215 230 225 210 195 185 188 180 163 154
296 264 182 299 323 333 270 279 358 299 261 226 260 338 3 358 42 40 19 352 349 355 2 14 20 25 26 259 255 255 271 260 214 220 204 185 184 180 178 176 181 184 213 250 265 289 201 176 171 171 161 145 143 151
314 285 273 242 239 230 266 285 302 307 336 355 20 22 28 39 36 33 348 339 339 353 6 25 28 23 12 14 258 246 216 192 215 255 263 216 186 185 194 178 180 310 112 107 98 217 176 171 167 161 151 140 140 141
263 285 283 316 345 6 299 292 15 15 4 355 48 32 56 17 345 324 327 334 351 10 56 34 26 22 36 47 48 93 131 140 153 20 140 152 166 176 171 155 36 92 118 120 129 152 171 177 167 160 153 148 144 139
264 278 301 342 20 30 27 8 26 11 354 26 69 59 34 8 13 359 352 0 17 43 66 70 56 46 62 55 61 94 129 141 151 156 152 160 168 175 170 177 56 95 119 125 124 120 159 170 162 159 156 150 144 139
289 354 59 47 30 32 4 13 76 84 86 91 96 106 75 47 37 36 51 58 58 56 66 68 66 59 56 57 59 68 114 165 149 168 184 185 184 184 201 220 240 47 155 153 155 155 161 166 164 165 165 165 166 164
20 41 59 51 49 54 114 113 110 110 99 95 84 77 68 53 42 46 51 63 78 87 83 74 70 67 56 47 45 65 66 85 120 148 151 153 166 199 221 235 237 243 221 197 186 185 178 175 179 181 183 186 186 182
50 65 103 94 76 128 95 93 75 113 133 352 46 60 47 37 32 34 41 53 61 62 62 65 67 63 66 74 74 67 66 60 42 43 214 214 215 211 206 219 221 262 208 201 201 198 193 187 187 189 193 196 199 201
117 78 77 102 137 166 115 133 88 75 68 81 77 65 52 41 49 34 36 39 49 53 58 55 52 49 47 50 54 55 57 59 57 50 39 354 243 248 231 214 210 239 214 201 206 210 205 198 195 195 199 203 205 204
Wind_Speed_850mb
67 68 67 66 64 62 58 56 55 55 52 52 49 47 51 42 37 35 47 40 43 20 34 45 51 29 15 13 9 15 6 3 6 6 7 7 6 9 3 7 11 14 14 9 6 8 17 21 11 10 8 8 11 17
70 71 70 67 64 63 62 59 57 54 53 51 48 47 44 42 38 34 48 40 43 59 31 39 48 65 37 25 14 17 15 10 12 5 3 5 3 4 7 6 2 6 13 10 17 13 11 35 22 19 22 24 17 19
76 77 73 70 67 65 63 61 58 56 55 52 50 47 44 40 39 37 44 36 38 41 47 56 62 69 69 71 54 22 25 28 15 14 12 5 5 7 8 11 6 9 12 7 2 6 12 29 31 32 23 22 18 18
84 82 74 70 69 67 64 61 57 54 52 51 49 46 44 39 36 36 40 36 39 23 11 29 32 36 40 54 59 57 45 22 31 34 11 6 5 16 6 6 8 12 13 9 11 15 25 39 35 22 16 15 18 18
90 81 75 72 71 69 65 61 56 53 51 49 46 44 43 40 35 39 47 47 49 49 7 12 11 36 36 38 39 44 46 41 30 14 5 6 7 6 5 3 10 19 14 11 12 19 12 14 8 8 16 13 13 18
82 78 76 76 73 69 64 60 56 53 48 45 45 48 46 40 31 37 19 29 52 67 21 5 21 27 27 30 41 38 44 51 34 18 9 11 12 13 6 7 13 48 47 49 14 16 23 13 10 8 7 6 10 16
93 90 84 81 77 70 62 57 54 51 46 44 46 43 40 36 35 39 18 15 27 57 21 6 8 14 34 37 37 29 32 27 26 14 11 15 12 18 5 11 10 38 43 47 39 33 19 20 6 8 5 6 10 18
98 95 91 85 78 73 66 57 50 47 45 45 38 40 42 42 48 57 60 58 34 53 23 5 6 6 27 15 9 27 21 27 24 13 11 10 13 12 11 21 41 35 20 29 28 39 24 9 18 10 7 8 12 19
92 87 82 77 74 69 64 57 45 43 39 33 34 38 44 47 38 47 39 46 49 31 7 7 6 7 30 13 13 14 14 5 8 6 8 18 8 15 26 23 38 46 32 28 31 33 31 17 12 13 14 12 13 17
82 78 71 56 60 55 49 45 38 28 28 28 31 22 13 17 32 22 24 18 18 25 15 6 10 4 24 12 9 13 12 6 7 10 18 8 15 52 65 69 57 39 28 38 28 33 38 37 27 18 16 11 10 10
62 55 43 37 31 32 33 44 24 19 23 21 12 16 22 21 17 16 9 12 10 5 13 13 29 6 16 5 5 17 6 9 6 8 11 6 7 21 67 82 87 79 58 32 35 34 35 33 21 25 16 8 5 9
48 39 27 17 14 27 27 21 17 21 15 10 22 27 12 9 9 8 7 6 9 11 12 9 14 14 7 10 5 12 8 11 9 20 8 6 10 50 33 21 24 47 60 58 45 30 24 27 24 19 13 5 3 6
43 34 21 11 14 18 14 12 16 14 16 19 8 8 9 12 8 8 12 7 7 8 19 15 7 15 6 7 5 4 8 6 22 9 7 10 15 12 10 15 13 23 35 42 41 35 27 25 23 17 11 6 3 6
36 30 24 17 11 7 7 8 9 12 11 9 8 8 7 6 8 9 7 7 16 12 33 28 9 7 6 4 3 3 6 6 8 8 9 7 30 21 15 11 11 24 31 38 41 32 32 33 29 21 14 10 9 11
27 25 23 17 11 9 7 7 11 17 10 8 9 8 12 11 10 10 18 5 4 28 42 14 9 8 3 3 6 5 6 8 10 9 8 15 28 24 26 23 22 36 41 44 46 47 40 31 24 21 17 11 11 14
22 17 30 25 19 12 12 14 23 12 14 10 11 7 9 1 3 10 10 9 13 37 24 5 6 4 7 6 10 11 5 10 8 7 8 11 24 36 32 31 33 38 44 50 49 36 22 16 23 17 16 10 6 11
23 24 28 23 23 25 20 18 11 10 10 8 8 15 8 2 2 2 5 7 26 31 3 3 7 11 5 7 7 8 8 5 5 6 8 25 38 37 35 35 38 45 49 47 38 35 33 27 24 21 19 12 4 7
30 31 32 23 23 24 15 6 6 6 7 10 6 5 1 9 3 2 9 17 25 15 12 5 7 7 5 7 6 5 3 4 12 19 30 31 30 28 29 36 46 47 42 42 43 37 35 23 20 19 16 11 5 3
33 33 23 14 14 16 8 6 4 7 8 9 9 6 5 7 12 2 7 10 20 7 11 4 7 6 5 6 4 7 15 26 28 33 36 30 26 25 30 36 40 39 41 43 39 34 27 16 9 12 11 11 8 3
19 19 17 8 12 7 7 7 6 8 8 10 12 7 6 4 11 15 5 3 7 5 5 5 6 8 9 16 17 24 29 32 31 27 22 15 16 23 30 41 41 42 43 38 34 36 25 17 16 10 11 12 10 4
7 10 12 10 10 5 7 7 7 8 13 10 13 12 6 3 5 10 12 13 3 4 5 9 15 17 32 11 22 36 26 23 25 20 17 18 17 14 24 29 35 43 41 42 47 24 16 18 15 15 14 13 10 7
10 9 11 11 5 6 7 6 11 17 8 12 14 9 6 4 4 3 7 7 4 8 14 21 33 32 11 18 27 25 22 23 24 25 20 18 18 18 22 25 32 39 40 51 28 30 22 17 17 16 10 11 14 8
18 13 9 3 5 5 9 9 7 6 4 7 10 7 4 5 6 5 2 3 3 12 30 35 35 20 4 6 11 13 11 10 13 17 16 18 19 19 25 26 30 54 49 37 25 20 20 18 14 14 16 16 14 8
12 5 5 5 5 7 7 6 7 7 6 5 2 5 6 6 8 2 3 7 19 26 32 25 17 13 7 2 4 3 4 5 3 6 11 20 30 32 24 30 33 27 18 14 17 15 14 13 16 18 19 15 10 13
6 4 3 7 5 5 6 9 5 0 4 3 4 4 4 6 3 4 4 12 32 39 36 29 12 2 4 7 6 6 5 8 13 8 12 19 28 28 29 24 16 13 13 13 15 16 18 20 20 20 15 11 17 22
4 3 3 3 4 1 5 5 5 4 5 5 2 6 7 3 7 7 6 26 39 41 38 35 29 17 1 6 9 10 10 7 9 11 11 17 25 30 30 24 20 15 8 11 7 7 13 23 23 17 16 19 21 21
5 5 5 9 10 10 5 8 7 4 5 8 4 6 7 7 8 6 22 29 40 31 23 23 21 17 14 7 4 11 7 5 8 6 13 17 29 29 21 14 7 5 4 4 1 2 13 27 23 21 24 24 22 21
7 6 5 20 7 8 3 2 7 10 7 12 6 9 5 8 5 14 22 32 26 20 14 15 15 16 21 20 17 12 18 18 9 4 29 36 31 22 17 11 6 6 6 7 5 10 15 20 25 28 28 28 29 28
7 8 7 6 8 10 12 10 7 9 14 8 5 5 6 9 25 22 26 22 21 18 17 15 15 16 17 17 17 16 22 20 11 26 35 34 30 22 18 11 4 10 13 13 14 11 14 21 26 30 32 32 31 29
4 7 4 7 5 7 8 8 10 18 30 30 17 12 12 27 37 24 21 20 21 24 26 27 27 30 32 28 23 18 10 13 12 17 25 26 27 19 14 13 7 1 9 12 15 25 28 29 34 35 36 34 31 27
3 7 7 8 5 11 31 33 35 31 30 35 31 24 12 7 35 48 39 33 30 33 38 37 36 32 25 25 22 15 22 18 13 15 23 21 23 20 15 12 10 9 8 14 14 23 33 37 38 39 37 34 30 26
7 6 3 3 5 20 12 5 5 6 4 3 6 4 9 10 11 19 45 44 45 49 45 40 39 38 32 33 30 38 41 26 15 6 8 20 26 21 18 13 11 4 18 22 17 21 27 31 33 34 34 33 29 26
11 7 8 8 7 5 6 7 2 3 5 3 5 9 10 8 9 17 19 24 38 43 42 41 39 37 32 26 25 26 26 26 28 29 21 2 19 22 21 20 26 20 21 26 20 20 24 26 27 26 28 28 26 24
Wind_Direction_850mb
314 310 307 305 303 305 303 303 298 298 294 295 296 290 296 296 294 286 287 271 274 252 258 252 260 256 204 199 169 172 94 238 75 164 158 208 180 219 149 221 179 174 171 198 172 216 257 162 128 165 215 265 279 297
313 309 305 300 298 297 297 297 294 292 295 294 296 294 295 295 292 287 281 289 265 254 250 278 274 252 246 219 209 188 183 148 199 97 220 109 180 163 168 244 175 228 192 179 180 215 221 191 220 238 275 277 281 288
309 308 304 299 295 291 291 291 290 288 289 289 291 292 289 292 286 282 279 274 269 263 267 268 265 266 251 245 237 246 253 219 210 236 175 173 190 129 178 234 212 246 180 205 116 230 216 241 253 270 253 267 276 289
306 305 302 299 297 293 290 288 288 286 287 284 286 287 288 288 283 281 270 265 253 262 255 259 267 250 254 243 241 221 234 229 217 204 188 145 168 188 225 241 205 210 148 196 260 281 278 269 265 263 249 260 278 290
303 300 298 294 295 294 288 284 284 283 282 282 283 284 287 283 281 281 269 257 241 229 270 283 243 259 260 246 232 220 213 212 199 171 144 195 169 152 237 278 234 185 195 181 227 231 223 270 283 231 232 260 271 275
308 303 297 290 287 288 287 281 279 280 279 278 279 281 280 281 278 285 283 255 236 223 255 251 252 228 215 221 214 215 202 203 209 176 177 195 170 174 223 246 237 217 221 226 210 230 235 271 267 241 242 248 269 282
302 298 292 288 283 281 280 278 273 275 276 272 278 280 279 278 264 259 238 258 312 214 226 262 249 227 221 209 203 196 209 201 206 204 200 160 184 189 242 246 229 228 231 228 230 244 256 250 221 203 206 237 277 291
301 296 290 284 277 275 275 272 268 267 272 274 277 275 279 275 270 259 251 247 268 197 205 240 252 221 187 169 149 174 172 191 194 189 166 169 158 201 252 242 240 231 229 229 233 226 237 246 202 203 217 251 281 289
309 300 294 283 275 270 268 263 257 260 274 273 277 281 282 271 257 257 251 239 231 213 221 201 209 203 178 145 139 146 144 151 200 192 207 166 181 219 236 249 245 244 229 227 232 221 221 224 211 221 243 265 285 285
315 308 301 284 274 268 267 253 244 251 263 274 275 281 258 227 237 207 186 188 191 204 233 226 213 228 179 152 135 143 157 184 189 205 166 223 242 245 248 255 259 255 238 225 212 212 220 231 224 228 251 264 285 277
327 325 317 298 275 258 265 241 210 233 261 272 239 221 257 281 171 189 182 184 173 216 218 221 199 192 184 154 118 168 171 165 210 180 193 231 256 241 244 241 242 242 243 236 222 230 238 236 229 226 224 243 274 300
342 343 339 327 292 273 236 181 188 226 238 264 300 296 267 240 209 183 194 182 195 217 191 195 198 196 162 143 153 170 196 180 222 142 196 241 245 250 252 261 236 223 224 225 224 238 240 224 222 209 197 211 285 319
356 355 5 25 83 114 144 160 210 249 259 287 255 244 203 209 203 203 189 191 215 205 177 167 146 160 154 142 130 177 217 207 136 182 215 231 266 267 225 201 186 193 203 210 211 221 222 201 174 176 167 145 49 8
20 33 46 57 79 125 194 231 235 225 254 233 222 254 241 201 221 208 193 185 213 181 155 147 125 124 162 136 124 236 225 143 205 219 225 223 238 244 196 178 195 180 179 186 194 188 174 163 153 147 135 108 65 39
4 19 15 1 335 316 287 258 242 251 245 244 229 236 224 241 248 267 237 281 138 160 147 124 99 134 118 154 198 234 232 215 211 217 228 217 214 195 171 158 156 161 166 166 157 149 145 140 139 140 133 104 65 35
359 16 16 10 354 331 307 278 285 212 185 236 248 270 252 228 282 181 193 133 126 151 148 140 145 168 181 203 195 214 236 219 240 213 229 228 179 167 162 164 170 169 166 151 145 142 155 178 169 156 163 143 90 35
351 4 357 349 341 340 314 298 199 214 221 239 257 255 259 252 273 136 104 145 169 161 177 144 206 212 169 204 207 207 221 254 307 250 206 167 153 159 163 169 171 168 163 163 156 153 146 136 154 172 176 168 136 31
336 337 335 329 324 331 323 315 299 272 252 266 289 30 248 148 32 196 204 204 179 188 152 224 291 239 199 203 219 231 233 46 106 133 133 134 143 156 168 173 176 173 169 167 167 157 151 145 161 171 180 189 207 358
320 327 337 325 330 323 325 308 291 284 271 305 335 331 213 264 215 201 33 277 207 177 179 222 243 245 215 244 302 310 205 145 140 121 117 127 140 156 171 179 183 185 184 182 176 167 151 134 156 178 192 212 225 281
313 323 340 298 297 312 292 284 293 295 289 317 308 310 260 234 201 214 198 86 157 228 224 228 238 220 267 259 228 209 170 151 137 120 112 138 168 183 184 189 192 190 188 186 177 160 154 180 195 216 226 227 231 312
330 325 332 319 310 292 271 309 294 269 305 296 319 318 303 280 238 216 224 202 144 318 283 281 277 274 279 279 101 110 102 92 83 90 116 117 114 127 170 184 189 186 193 185 163 157 209 208 232 234 235 222 221 272
34 4 326 347 327 302 280 272 265 290 272 290 318 326 318 317 276 242 163 189 194 280 289 293 315 341 53 121 155 150 116 101 87 79 95 112 120 127 146 162 172 169 168 155 166 178 195 220 238 227 233 226 227 243
345 345 325 310 285 268 284 292 285 290 306 301 334 333 335 323 329 129 40 68 75 339 315 314 316 335 16 106 123 138 133 98 87 70 79 116 125 126 134 146 161 155 160 171 182 201 228 246 234 227 219 213 215 229
340 296 282 285 262 269 269 252 249 278 288 306 313 324 312 315 332 31 60 56 358 5 9 352 309 310 335 249 264 296 272 207 141 118 127 144 141 143 131 136 140 144 144 177 202 217 235 244 233 204 197 202 204 169
300 239 249 289 255 289 325 325 270 272 307 13 323 296 317 342 4 30 46 6 360 4 15 18 30 168 265 252 280 306 348 217 218 201 164 160 162 165 164 157 163 182 190 199 215 230 225 210 195 185 188 180 163 154
296 264 182 299 323 333 270 279 358 299 261 226 260 338 3 358 42 40 19 352 349 355 2 14 20 25 26 259 255 255 271 260 214 220 204 185 184 180 178 176 181 184 213 250 265 289 201 176 171 171 161 145 143 151
314 285 273 242 239 230 266 285 302 307 336 355 20 22 28 39 36 33 348 339 339 353 6 25 28 23 12 14 258 246 216 192 215 255 263 216 186 185 194 178 180 310 112 107 98 217 176 171 167 161 151 140 140 141
263 285 283 316 345 6 299 292 15 15 4 355 48 32 56 17 345 324 327 334 351 10 56 34 26 22 36 47 48 93 131 140 153 20 140 152 166 176 171 155 36 92 118 120 129 152 171 177 167 160 153 148 144 139
264 278 301 342 20 30 27 8 26 11 354 26 69 59 34 8 13 359 352 0 17 43 66 70 56 46 62 55 61 94 129 141 151 156 152 160 168 175 170 177 56 95 119 125 124 120 159 170 162 159 156 150 144 139
289 354 59 47 30 32 4 13 76 84 86 91 96 106 75 47 37 36 51 58 58 56 66 68 66 59 56 57 59 68 114 165 149 168 184 185 184 184 201 220 240 47 155 153 155 155 161 166 164 165 165 165 166 164
20 41 59 51 49 54 114 113 110 110 99 95 84 77 68 53 42 46 51 63 78 87 83 74 70 67 56 47 45 65 66 85 120 148 151 153 166 199 221 235 237 243 221 197 186 185 178 175 179 181 183 186 186 182
50 65 103 94 76 128 95 93 75 113 133 352 46 60 47 37 32 34 41 53 61 62 62 65 67 63 66 74 74 67 66 60 42 43 214 214 215 211 206 219 221 262 208 201 201 198 193 187 187 189 193 196 199 201
117 78 77 102 137 166 115 133 88 75 68 81 77 65 52 41 49 34 36 39 49 53 58 55 52 49 47 50 54 55 57 59 57 50 39 354 243 248 231 214 210 239 214 201 206 210 205 198 195 195 199 203 205 204